"Pseudo-MPEC" for P10Iju1

Created 2018 Jul 17 17:18:08 UT using Find_Orb

Click here for an explanation of pseudo-MPECs

 
 Astrometry: 
     P10Iju1  C2018 07 10D`AstrometryiCUm_T7Fv)wq)s;?T#k'\60p1A;qd8'Xx[Ni[Ne;F51
     P10Iju1  C2018 07 10Wbfa6'D_rLAb\8sX-redacted;EByLTQsee-(@BW`7h$O8+0]D(cF51
     P10Iju1  C2018 07 10fjyX=W?brhTJO7DqH*c6-gfELP\q2E7VEIsVB6V:$ed./YJNEOCPF51

Station data:
(F51) Pan-STARRS 1, Haleakala  (N20.707235 W156.255910)  US/Hawaii.
   Observers N. Primak, A. Schultz, S. Watters, J. Thiel, T. Goggia. Measurer
   PS1 Science Consortium. 1.8-m Ritchey-Chrétien + CCD.

Orbital elements:  P10Iju1
   Perihelion 2018 Aug 19.951975 +/- 38 TT = 22:50:50 (JD 2458350.451975)
Epoch 2018 Jul 11.0 TT = JDT 2458310.5   Earth MOID: 0.0255   AutoNEOCP
M 326.14207 +/- 29                  (J2000 ecliptic)
n   0.84746569 +/- 0.454            Peri.   32.58568 +/- 60
a   1.10591385 +/- 0.395            Node   295.04730 +/- 43
e   0.0665488 +/- 0.26              Incl.    6.75761 +/- 14
P   1.16/424.79d           H 26.5   G  0.15   U 12.2  SR
q 1.03231652 +/- 0.27    Q 1.17951118 +/- 30.4
From 3 observations 2018 July 10 (39.1 min); mean residual 0".02
Residuals in arcseconds: 
180710 F51  .01+  .01-    180710 F51  .02-  .03+    180710 F51  .01+  .02-    

Ephemerides (geocentric):
Date (UTC) HH   RA              Dec         delta   r     elong  mag " sig PA
---- -- -- --  -------------   -----------  ------ ------ -----  --- ---- ---
2018 07 17 17  21 38 07.144   -11 49 36.97  .02924 1.0422 151.8 20.1  80d  16
2018 07 17 18  21 38 04.804   -11 39 08.91  .02922 1.0422 151.8 20.1  80d  16
2018 07 17 19  21 38 02.457   -11 28 40.08  .02920 1.0422 151.8 20.1  80d  16
2018 07 17 20  21 38 00.104   -11 18 10.49  .02918 1.0421 151.8 20.1  80d  16
2018 07 17 21  21 37 57.744   -11 07 40.16  .02916 1.0421 151.7 20.1  80d  16
2018 07 17 22  21 37 55.378   -10 57 09.09  .02915 1.0421 151.7 20.1  80d  16
2018 07 17 23  21 37 53.004   -10 46 37.30  .02913 1.0421 151.7 20.1  79d  18
2018 07 18 00  21 37 50.625   -10 36 04.81  .02911 1.0420 151.7 20.1  79d  18
2018 07 18 01  21 37 48.238   -10 25 31.61  .02909 1.0420 151.6 20.1  79d  18
2018 07 18 02  21 37 45.845   -10 14 57.73  .02908 1.0420 151.6 20.1  79d  18
2018 07 18 03  21 37 43.446   -10 04 23.18  .02906 1.0420 151.6 20.1  79d  18
2018 07 18 04  21 37 41.040   -09 53 47.97  .02904 1.0419 151.6 20.1  79d  18
2018 07 18 05  21 37 38.627   -09 43 12.10  .02903 1.0419 151.5 20.1  80d  18
2018 07 18 06  21 37 36.208   -09 32 35.61  .02901 1.0419 151.5 20.1  80d  18
2018 07 18 07  21 37 33.783   -09 21 58.49  .02900 1.0419 151.5 20.1  80d  18
2018 07 18 08  21 37 31.352   -09 11 20.75  .02898 1.0419 151.4 20.1  80d  18
2018 07 18 09  21 37 28.914   -09 00 42.42  .02897 1.0418 151.4 20.1  80d  17
2018 07 18 10  21 37 26.469   -08 50 03.51  .02895 1.0418 151.4 20.1  80d  17
2018 07 18 11  21 37 24.019   -08 39 24.02  .02894 1.0418 151.3 20.1  80d  17
2018 07 18 12  21 37 21.562   -08 28 43.98  .02893 1.0418 151.3 20.1  80d  17
2018 07 18 13  21 37 19.099   -08 18 03.39  .02891 1.0417 151.2 20.1  80d  17
2018 07 18 14  21 37 16.630   -08 07 22.26  .02890 1.0417 151.2 20.1  80d  17
2018 07 18 15  21 37 14.155   -07 56 40.62  .02889 1.0417 151.2 20.1  80d  17
2018 07 18 16  21 37 11.673   -07 45 58.47  .02887 1.0417 151.1 20.1  80d  17
2018 07 18 17  21 37 09.186   -07 35 15.82  .02886 1.0416 151.1 20.1  80d  17
2018 07 18 18  21 37 06.692   -07 24 32.70  .02885 1.0416 151.0 20.1  80d  17
2018 07 18 19  21 37 04.193   -07 13 49.10  .02884 1.0416 151.0 20.1  80d  17
2018 07 18 20  21 37 01.687   -07 03 05.06  .02883 1.0416 150.9 20.1  80d  17
2018 07 18 21  21 36 59.175   -06 52 20.57  .02882 1.0415 150.9 20.1  80d  17
2018 07 18 22  21 36 56.658   -06 41 35.66  .02881 1.0415 150.9 20.1  80d  17
2018 07 18 23  21 36 54.134   -06 30 50.33  .02879 1.0415 150.8 20.1  81d  17
2018 07 19 00  21 36 51.605   -06 20 04.61  .02878 1.0415 150.8 20.1  81d  17
2018 07 19 01  21 36 49.069   -06 09 18.50  .02877 1.0414 150.7 20.1  81d  17
2018 07 19 02  21 36 46.528   -05 58 32.02  .02877 1.0414 150.7 20.1  81d  17
2018 07 19 03  21 36 43.981   -05 47 45.18  .02876 1.0414 150.6 20.1  81d  17
2018 07 19 04  21 36 41.428   -05 36 57.99  .02875 1.0414 150.6 20.1  81d  17
2018 07 19 05  21 36 38.870   -05 26 10.48  .02874 1.0414 150.5 20.1  81d  17
2018 07 19 06  21 36 36.305   -05 15 22.65  .02873 1.0413 150.4 20.1  81d  17
2018 07 19 07  21 36 33.735   -05 04 34.51  .02872 1.0413 150.4 20.1  81d  17
2018 07 19 08  21 36 31.160   -04 53 46.09  .02871 1.0413 150.3 20.1  81d  17
2018 07 19 09  21 36 28.578   -04 42 57.39  .02871 1.0413 150.3 20.1  81d  17
2018 07 19 10  21 36 25.991   -04 32 08.43  .02870 1.0412 150.2 20.1  81d  17
2018 07 19 11  21 36 23.399   -04 21 19.23  .02869 1.0412 150.2 20.1  81d  17
2018 07 19 12  21 36 20.801   -04 10 29.79  .02869 1.0412 150.1 20.1  81d  17
2018 07 19 13  21 36 18.197   -03 59 40.14  .02868 1.0412 150.0 20.1  81d  17
2018 07 19 14  21 36 15.588   -03 48 50.28  .02867 1.0411 150.0 20.1  81d  17
2018 07 19 15  21 36 12.973   -03 38 00.23  .02867 1.0411 149.9 20.1  81d  17
2018 07 19 16  21 36 10.352   -03 27 10.00  .02866 1.0411 149.9 20.1  81d  17